Regional Weather Roundup
Issued by NWS

Current Version | Previous Version | Text Only | Print | Product List | Glossary On
Versions: 1 2 3 4 5 6 7 8 9 10 11 12 13 14 15 16 17 18 19 20 21 22 23 24 25 26 27 28 29 30 31 32 33 34 35 36 37 38 39 40 41 42 43 44 45 46 47 48 49 50
000
ASUS42 KKEY 281910
RWRKEY

FLORIDA REGIONAL WEATHER ROUNDUP FOR THE FLORIDA KEYS
NATIONAL WEATHER SERVICE KEY WEST FLORIDA
200 PM EST SAT FEB 28 2015

...SOUTH FLORIDA AND THE KEYS...

CITY           SKY/WX    TMP DP  RH WIND       PRES   REMARKS
FORT MYERS     PTSUNNY   82  68  62 E7        30.20F
SW REGIONAL AP MOSUNNY   81  68  64 NE8       30.21F
NAPLES         PTSUNNY   82  69  64 W9        30.19F
MIAMI          LGT RAIN  71  64  78 E17G26    30.22F
WEST KENDALL   PTSUNNY   77  66  68 E12       30.22F
HOMESTEAD      PTSUNNY   81  72  75 NE13      30.20F
MARATHON       MOSUNNY   82  74  76 SE9       30.19F
BOCA CHICA NAS MOSUNNY   82  72  71 E15       30.19F
KEY WEST INTL  SUNNY     81  74  79 E12       30.19F

...INTERNATIONAL WEATHER...

CITY           SKY/WX    TMP DP  RH WIND       PRES   REMARKS
NASSAU BAHAMAS MOSUNNY   82  66  57 SE10      30.22F
CANCUN MEXICO  MOSUNNY   82  73  74 SE21      30.13F
COZUMEL MEXICO MOSUNNY   81  72  74 SE16      30.11F

ADJACENT COASTAL WATERS...

STATION/POSITION TIME  SKY/WX   TEMP    WIND        PRES    WAVE
                                AIR SEA DIR/SP/G            HT/PER
                 (UTC)          (F)     (DEG/KT/KT) (MB)    (FT/S)
PULASKI SHOAL LI 1800            69      70/ 10/ 11 1022.9F
SAND KEY         1850            75      70/  8/  9 1022.4F
SOMBRERO KEY     1900            77      90/  9/ 10 1022.9F
LONG KEY         1800            77 77   90/  9/ 11 1024.0F
MOLASSES REEF    1900            77 76  100/ 13/ 14 1022.5F
FOWEY ROCKS      NOT AVBL
Buoy 42080       NOT AVBL

$$



USA.gov is the U.S. government's official web portal to all federal, state and local government web resources and services.